This is the latest recevied weather packets stored in our database for station/object KX4O-13. If no packets are shown the sender has not sent any weather packets the latest 10 day(s).
| Time | Temp. | Humidity | Pressure | Rain* | Wind** | Luminosity | Snow |
|---|---|---|---|---|---|---|---|
| 1777761957 | 13.33° C | 42% | 1011.7 hPa | 0 mm | - | 144 W/m² | - |
| 1777761657 | 13.33° C | 42% | 1011.7 hPa | 0 mm | - | 135 W/m² | - |
| 1777761357 | 13.33° C | 44% | 1011.7 hPa | 0 mm | - | 120 W/m² | - |
| 1777761057 | 13.33° C | 42% | 1011.7 hPa | 0 mm | - | 125 W/m² | - |
| 1777760757 | 13.33° C | 45% | 1011.7 hPa | 0 mm | - | 165 W/m² | - |
| 1777760457 | 13.33° C | 44% | 1011.8 hPa | 0 mm | - | 165 W/m² | - |
| 1777760157 | 13.89° C | 44% | 1011.7 hPa | 0 mm | - | 165 W/m² | - |
| 1777759857 | 13.89° C | 44% | 1011.7 hPa | 0 mm | - | 165 W/m² | - |
| 1777759557 | 13.89° C | 42% | 1011.6 hPa | 0 mm | - | 346 W/m² | - |
| 1777759257 | 13.89° C | 40% | 1011.6 hPa | 0 mm | - | 174 W/m² | - |
| 1777758957 | 13.33° C | 41% | 1011.6 hPa | 0 mm | - | 139 W/m² | - |
| 1777758657 | 13.33° C | 44% | 1011.7 hPa | 0 mm | - | 139 W/m² | - |
| 1777758358 | 13.89° C | 44% | 1011.8 hPa | 0 mm | - | 165 W/m² | - |
| 1777758058 | 13.89° C | 45% | 1011.7 hPa | 0 mm | - | 181 W/m² | - |
| 1777757758 | 13.89° C | 43% | 1011.7 hPa | 0 mm | - | 209 W/m² | - |
| 1777757458 | 13.89° C | 44% | 1011.7 hPa | 0 mm | - | 209 W/m² | - |
| 1777757157 | 13.33° C | 44% | 1011.7 hPa | 0 mm | - | 178 W/m² | - |
| 1777756857 | 13.89° C | 42% | 1011.6 hPa | 0 mm | - | 142 W/m² | - |
| 1777756557 | 13.89° C | 39% | 1011.6 hPa | 0 mm | - | 160 W/m² | - |
| 1777756257 | 14.44° C | 39% | 1011.6 hPa | 0 mm | - | 468 W/m² | - |
| 1777755958 | 14.44° C | 42% | 1011.6 hPa | 0 mm | - | 468 W/m² | - |
| 1777755658 | 14.44° C | 41% | 1011.6 hPa | 0 mm | - | 320 W/m² | - |
| 1777755357 | 14.44° C | 42% | 1011.6 hPa | 0 mm | - | 253 W/m² | - |
| 1777755058 | 14.44° C | 39% | 1011.6 hPa | 0 mm | - | 267 W/m² | - |
| 1777754757 | 15.56° C | 38% | 1011.6 hPa | 0 mm | - | 802 W/m² | - |
* Rain latest hour (hover to see other rain measurements)
** Current wind speed in m/s (hover to see current wind gust speed)